Погода в Кожиле

Россия / Удмуртская Республика     58°08′27″N   52°27′07″E
темп.,
°C
ветер,
м/с
пор.,
м/с
влажн.,
%
обл.,
%
осадки,
мм/ч
давл.,
гПа
погр.,
м
24 января, вс
вс2401:00−14юв4994100 0.4 1022375
04:00−13юв4994100 0.6 1021363
07:00−14юв4995100 0.1 1020283
10:00−11ююв4794100 0.6 1020314
13:00−9ю2494100 0.4 1020266
16:00−7ююз139798 0.7 102192
19:00−6ююз129897 0.0 102128
22:00−2ююз119899 0.0 102243
25 января, пн
пн2501:000ююз2799100 0.1 1022283
04:00+1юз3799100 0.1 1022242
07:00+1юз41099100 0.2 1022318
10:00+1ююз4999100 0.3 1023293
13:00+2ююз51199100 0.1 1023358
16:00+1юз51299100 0.4 1024398
19:00+1юз51198100 0.5 1024404
22:00−2юз41095100 1.0 1025425
26 января, вт
вт2601:00−4ююз4996100 0.1 1025505
04:00−3ююз4995100 0.1 1026597
07:00−4ююз4893100 0.1 1025575
10:00−5ю4994100 0.1 1025519
13:00−4ююз4993100 0.1 1024557
16:00−2ююз499699 0.3 1024599
19:00−3ююз4109296 0.1 1023555
22:00−3ююз4109398 0.3 1023576
27 января, ср
ср2701:00−3ююз3995100 0.1 1023600
04:00−3ююз4994100 0.2 1022558
07:00−4ю4995100 0.2 1022446
10:00−4ююз51093100 0.4 1022510
13:00−4ю51093100 0.1 1022446
16:00−4ю4994100 0.1 1021600
19:00−5ю51193100 0.1 1021446
22:00−4ю51294100 0.1 1020440
28 января, чт
чт2801:00−5ю41094100 0.3 1020442
04:00−7ю41092100 0.4 1019410
07:00−8ю41192100 0.0 1019385
10:00−6ю41290100 0.0 1019460
13:00−4ю51186100 0.0 1018509
16:00−5ю41287100 0.0 1019444
19:00−7ююв41191100 0.0 1018385
22:00−8ююв31092100 0.0 1018293